Location: Daouli
(14.8671°N, 3.2030°W)
Time: 02:11:45
(UTC+00:00)

NOAA 15 - Pass Details

Date: 29 October 2020
Orbit: 797 x 813 km, 98.7° (Epoch: 02 December)

Event Time Altitude Azimuth Distance (km) Brightness Sun altitude
Rises 19:13:27 0° 167° (SSE) 3,315 7.8 -21.7°
Reaches altitude 10° 19:15:46 10° 167° (SSE) 2,387 7.0 -22.3°
Maximum altitude 19:21:03 89° 82° (E) 814 4.5 -23.6°
Drops below altitude 10° 19:26:22 10° 348° (NNW) 2,395 7.1 -24.8°
Sets 19:28:42 0° 348° (NNW) 3,328 7.8 -25.4°
